Location: Unspecified
(49.2170°N, 0.0000°E)
Time: 14:17:34
(UTC+00:00)

Transit 4A - Pass Details

Date: 21 June 2019
Orbit: 863 x 981 km, 66.8° (Epoch: 20 August)

Event Time Altitude Azimuth Distance (km) Brightness Sun altitude
Rises 16:03:11 0° 324° (NW) 3,695 11.4 36.7°
Reaches altitude 10° 16:05:51 10° 329° (NNW) 2,742 10.8 36.3°
Maximum altitude 16:12:10 55° 47° (NE) 1,154 8.6 35.2°
Drops below altitude 10° 16:18:20 10° 125° (SE) 2,681 10.0 34.2°
Sets 16:20:54 0° 130° (SE) 3,608 10.6 33.8°
